Date,TemperatureHighF,TemperatureAvgF,TemperatureLowF,DewpointHighF,DewpointAvgF,DewpointLowF,HumidityHigh,HumidityAvg,HumidityLow,PressureMaxIn,PressureMinIn,WindSpeedMaxMPH,WindSpeedAvgMPH,GustSpeedMaxMPH,PrecipitationSumIn
2013-1-3,45.3,35.4,26.4,25.3,21.4,12.0,81,59,26,30.56,30.41,7,1,8,0.23
2013-1-4,46.8,33.5,23.5,28.4,21.4,18.0,82,63,36,30.61,30.50,6,1,10,0.00
2013-1-5,47.3,37.4,24.8,29.6,24.8,18.3,82,62,45,30.56,30.35,4,1,6,0.00
2013-1-6,50.4,41.5,29.7,34.6,29.6,20.4,76,63,46,30.53,30.26,10,3,17,0.00
2013-1-7,51.6,35.1,24.4,29.0,22.8,16.8,76,62,40,30.58,30.39,4,0,5,0.00
2013-1-8,61.9,44.2,28.0,39.8,32.4,20.5,82,65,42,30.47,30.31,5,1,9,0.00
2013-1-9,54.7,52.1,48.2,51.5,47.9,39.8,93,86,70,30.52,30.37,2,0,4,0.35
2013-1-10,67.1,59.6,52.2,59.8,54.9,48.8,92,85,74,30.51,30.08,9,2,19,0.27
2013-1-11,71.8,66.3,60.3,60.8,56.7,53.1,87,72,55,30.15,30.03,11,2,17,0.11
2013-1-12,71.1,69.6,67.5,64.8,62.1,58.9,89,77,68,30.08,29.92,10,3,16,0.08
2013-1-13,70.0,54.8,34.9,59.8,49.4,30.3,91,83,67,30.37,29.90,19,4,27,2.03
2013-1-14,35.1,31.0,27.5,30.4,24.7,19.4,85,77,67,30.53,30.36,11,2,14,0.00
2013-1-15,34.5,32.6,29.3,30.6,27.9,24.2,87,83,79,30.39,30.13,8,1,10,0.41
2013-1-16,35.6,34.4,33.4,30.7,29.8,28.9,87,83,77,30.27,30.10,7,2,9,0.14
2013-1-17,46.8,38.9,34.3,33.5,28.7,21.9,82,67,57,30.57,30.18,11,3,14,0.00
2013-1-18,52.9,38.4,26.4,29.1,24.4,19.3,81,59,30,30.70,30.49,4,1,8,0.00
2013-1-19,59.0,42.3,28.6,32.7,27.0,22.5,80,57,29,30.51,30.25,8,2,18,0.00
2013-1-20,53.8,43.8,33.4,33.7,25.8,14.8,77,51,23,30.38,30.26,8,2,11,0.00
2013-1-21,39.0,32.2,25.5,18.4,11.5,2.5,58,43,27,30.45,30.30,13,4,15,0.00
2013-1-22,31.6,25.7,19.4,5.3,0.1,-6.9,48,33,23,30.59,30.43,7,2,8,0.00
2013-1-23,53.8,41.6,22.5,30.4,19.3,5.2,64,41,28,30.51,30.24,8,2,10,0.00
2013-1-24,37.2,32.2,27.7,16.8,6.3,0.3,57,34,23,30.63,30.42,8,2,12,0.00
2013-1-25,36.7,33.7,30.4,32.1,25.0,2.0,87,72,29,30.43,30.15,9,2,11,0.24
2013-1-26,50.0,37.9,31.1,32.3,28.2,25.0,86,69,45,30.49,30.37,5,1,8,0.00
2013-1-27,52.0,42.0,29.3,41.8,33.4,23.9,81,72,53,30.49,30.32,6,1,14,0.01
2013-1-28,61.7,56.5,50.0,50.5,45.1,37.1,74,66,59,30.34,30.22,9,2,14,0.00
2013-1-29,71.2,63.6,53.8,60.1,55.8,48.1,85,76,68,30.23,29.68,14,2,21,0.00
2013-1-30,73.4,54.1,36.5,60.1,45.0,19.5,91,72,49,30.03,29.48,25,5,34,0.90
2013-1-31,47.5,39.2,30.7,33.7,21.8,-2.8,86,51,34,30.36,30.03,15,6,23,0.03
2013-2-1,33.1,25.4,17.4,24.4,7.7,-0.5,77,47,33,30.66,30.36,19,4,24,0.01
2013-2-2,43.2,34.2,24.8,32.8,23.6,9.8,80,65,47,30.47,30.18,10,2,11,0.01
2013-2-3,45.9,38.4,29.1,31.9,27.1,20.9,82,64,47,30.31,30.11,12,3,17,0.00
2013-2-4,61.0,44.0,28.0,32.6,26.0,19.9,78,53,23,30.27,29.98,5,1,8,0.00
2013-2-5,64.8,52.6,41.2,41.3,34.6,26.9,68,52,25,30.18,30.01,7,2,11,0.00
2013-2-6,60.1,47.2,35.1,35.2,31.1,27.7,82,56,33,30.35,30.18,4,1,7,0.00
2013-2-7,66.4,53.4,42.3,46.8,38.2,30.5,72,57,43,30.23,29.99,6,1,11,0.00
2013-2-17,54.1,39.5,20.5,36.4,15.3,10.1,70,39,24,30.42,30.10,7,1,9,0.00
2013-2-18,64.2,49.7,33.4,43.2,29.3,16.9,86,47,28,30.29,29.93,14,3,26,0.00
2013-2-19,49.6,43.6,34.0,46.2,26.4,12.2,91,54,25,30.36,29.92,23,6,33,0.00
2013-2-20,37.8,30.7,25.0,19.0,13.0,8.8,57,48,32,30.49,30.36,7,2,11,0.00
2013-2-21,48.2,37.6,27.1,40.2,23.3,12.3,91,59,30,30.38,29.97,6,1,10,0.00
2013-2-22,63.3,55.1,43.0,48.8,44.5,40.0,93,70,45,30.11,29.96,6,2,11,0.00
2013-2-23,54.0,46.4,36.3,32.5,29.5,23.8,64,52,41,30.12,29.99,7,2,9,0.00
2013-2-24,58.5,43.0,28.9,27.8,24.1,20.6,78,50,26,30.26,30.12,4,1,9,0.00
2013-2-25,66.6,51.9,35.4,46.9,31.5,22.8,75,48,25,30.14,29.63,8,2,16,0.00
2013-2-26,54.9,49.1,40.6,49.2,42.0,34.7,88,77,57,29.83,29.48,10,4,18,0.00
2013-2-27,41.4,40.6,39.4,34.8,31.8,29.4,79,71,63,30.02,29.83,10,4,15,0.00
2013-2-28,39.7,37.6,34.9,31.4,27.4,22.6,78,67,57,30.18,29.98,14,5,17,0.00
2013-3-1,39.2,36.0,33.1,33.3,30.6,28.8,89,80,71,30.19,30.13,9,3,12,0.00
2013-3-2,35.4,33.0,30.7,30.9,27.2,23.3,88,79,68,30.29,30.15,9,3,12,0.00
2013-3-3,44.6,35.2,26.4,24.5,15.3,7.9,80,47,23,30.30,30.20,10,3,12,0.00
2013-3-4,59.5,48.2,36.3,32.4,23.7,16.2,56,39,26,30.26,29.94,10,2,16,0.00
2013-3-5,57.2,47.9,33.4,55.5,40.1,18.6,96,75,43,30.14,29.75,18,5,26,0.00
2013-3-6,39.7,35.5,31.8,27.9,24.0,21.3,69,63,57,30.43,30.12,14,6,19,0.00
2013-3-7,46.2,36.0,30.6,29.4,25.0,23.0,75,64,51,30.52,30.42,4,1,8,0.00
2013-3-8,60.4,43.4,28.2,30.6,25.9,20.3,81,54,24,30.53,30.37,4,1,8,0.00
2013-3-9,69.1,54.8,40.6,36.8,31.7,27.2,65,44,23,30.37,30.12,8,1,12,0.02
2013-3-10,71.4,65.1,57.0,50.9,38.5,32.9,55,38,29,30.13,29.87,13,3,22,0.00
2013-3-11,66.9,49.4,41.2,56.2,43.9,30.1,99,82,57,30.11,29.82,11,4,16,0.71
2013-3-12,55.4,45.5,36.9,32.2,28.3,21.8,71,53,28,30.26,30.10,9,4,12,0.00
2013-3-13,46.0,39.9,32.2,31.6,23.0,17.7,65,51,38,30.53,30.24,14,5,17,0.00
2013-3-14,52.2,38.2,24.3,37.4,23.6,14.2,90,60,24,30.57,30.34,6,1,9,0.05
2013-3-15,77.0,57.0,33.1,46.9,40.4,31.5,99,60,33,30.34,29.93,11,2,13,0.00
2013-3-16,69.4,66.1,63.3,51.7,47.5,44.8,60,51,45,29.94,29.90,11,5,17,0.00
2013-3-19,58.8,46.2,44.6,46.3,16.8,14.3,63,31,28,30.29,30.04,3,0,4,2.54
2013-3-20,54.1,41.4,30.2,31.1,23.5,13.9,76,50,29,30.29,30.12,15,4,24,0.00
2013-3-21,45.3,34.2,24.1,18.0,12.6,6.0,68,43,24,30.23,30.07,10,2,14,0.00
2013-3-22,48.6,41.3,34.0,28.1,22.1,15.7,55,46,36,30.17,30.06,4,1,8,0.00
2013-3-23,57.7,49.3,42.4,46.5,40.2,28.1,87,71,51,30.10,29.82,4,1,8,0.01
2013-3-24,57.9,47.9,37.0,56.7,43.8,26.5,99,87,57,29.84,29.48,17,4,26,0.15
2013-3-25,37.6,35.9,33.3,31.4,25.5,21.3,92,66,53,30.26,29.83,16,8,22,0.00
2013-3-26,40.5,36.7,32.4,31.2,28.1,24.8,94,72,57,30.46,30.25,9,4,12,0.00
2013-3-27,53.4,40.6,28.6,28.8,24.9,19.5,87,58,27,30.53,30.22,9,2,49,12.93
2013-4-5,66.9,57.7,49.5,41.8,38.5,19.3,72,51,30,30.33,30.13,4,1,5,0.13
2013-4-6,76.1,60.7,41.7,45.6,39.4,33.0,92,52,24,30.26,30.04,9,2,14,13.77
2013-4-7,76.5,68.2,59.9,51.9,45.7,38.8,61,45,33,30.15,30.05,10,2,16,0.00
2013-4-8,80.4,68.6,55.6,57.4,53.2,47.6,75,59,41,30.11,29.99,9,2,17,0.00
2013-4-9,80.1,69.8,59.4,63.2,58.6,54.4,84,68,53,30.21,30.05,9,2,15,0.00
2013-4-10,89.1,76.6,62.1,61.4,58.5,56.0,85,56,36,30.13,29.85,9,2,17,0.00
2013-4-11,76.8,66.7,52.2,62.0,59.1,50.7,99,79,51,29.88,29.64,11,2,17,1.74
2013-4-12,66.6,55.0,43.7,50.8,40.2,34.8,96,61,34,30.09,29.80,13,4,17,0.00
2013-4-13,73.4,57.1,40.1,43.2,37.3,31.7,85,51,23,30.23,30.07,5,1,8,0.00
2013-4-14,76.5,59.9,48.6,51.3,43.9,39.1,80,59,27,30.10,29.96,11,2,20,0.00
2013-4-19,73.9,44.7,40.3,66.6,34.4,32.5,80,67,57,30.24,30.17,4,1,7,0.00
2013-4-20,63.7,50.0,34.9,38.4,32.7,26.0,99,58,26,30.42,30.24,8,1,11,0.00
2013-4-21,72.0,57.0,41.2,41.1,34.4,28.8,73,46,24,30.50,30.33,4,1,9,0.00
2013-4-22,77.7,62.5,44.8,46.7,42.0,38.0,84,51,25,30.38,30.17,6,1,10,0.00
2013-4-23,77.9,65.8,52.2,54.4,50.2,45.7,83,59,43,30.24,30.04,6,2,13,0.00
2013-4-24,70.2,55.8,47.1,59.3,47.7,37.5,99,75,57,30.41,29.93,17,3,21,0.00
2013-4-25,68.0,52.7,36.9,42.6,37.1,29.3,99,61,24,30.48,30.39,8,1,9,0.00
2013-4-26,61.9,53.1,43.7,50.3,44.6,41.6,96,74,50,30.54,30.37,4,1,7,0.00
2013-4-27,61.2,55.7,51.3,59.2,54.7,50.2,99,97,90,30.46,30.04,8,1,13,0.00
2013-4-28,69.3,62.0,57.2,61.1,56.2,53.0,99,83,59,30.09,29.98,8,2,10,0.00
2013-4-29,75.4,63.2,51.1,57.0,53.9,49.9,99,75,42,30.13,29.99,4,0,5,0.00
2013-4-30,84.0,68.2,51.1,59.2,54.2,49.6,99,66,34,30.13,30.03,7,1,9,0.00
2013-5-1,83.5,70.7,57.6,63.0,59.0,55.3,93,69,44,30.22,30.12,6,1,9,0.00
2013-5-2,78.8,71.2,60.6,62.2,58.0,55.1,89,64,50,30.26,30.13,8,1,9,0.00
2013-5-3,76.8,69.0,51.8,58.6,55.8,50.4,96,64,47,30.15,29.94,11,3,21,0.00
2013-5-4,51.1,46.8,44.6,50.1,45.5,43.8,99,95,85,30.10,29.98,5,1,7,0.00
2013-5-5,56.5,48.6,46.2,52.6,47.6,45.4,99,97,85,30.05,29.90,4,1,4,0.00
2013-5-6,69.1,57.5,50.7,55.1,51.2,43.4,99,82,40,30.03,29.86,5,1,10,0.00
2013-5-7,72.0,60.4,47.8,58.0,53.2,47.6,99,79,51,30.10,30.02,8,1,9,0.00
2013-5-8,79.2,67.2,54.9,60.9,57.7,54.0,99,74,45,30.13,30.05,6,1,8,0.00
2013-5-9,83.5,72.1,56.5,63.1,58.4,53.3,99,66,38,30.17,30.03,7,1,10,0.00
2013-5-10,73.2,68.2,64.6,66.0,62.7,59.4,99,83,62,30.08,29.97,8,1,12,0.00
2013-5-11,89.1,63.3,59.2,65.6,56.6,47.7,99,80,59,30.16,30.00,8,2,9,0.00
2013-5-12,64.2,56.3,45.5,47.3,35.9,25.7,83,49,25,30.29,30.16,8,2,11,0.00
2013-5-13,70.7,57.0,41.7,44.6,37.8,29.2,94,56,22,30.37,30.22,8,1,11,0.00
2013-5-14,88.0,70.3,48.7,59.2,52.5,44.0,86,57,34,30.29,30.03,8,1,10,0.00
2013-5-15,87.4,77.1,63.3,58.0,53.8,47.7,72,46,26,30.18,30.03,8,2,11,0.00
2013-5-16,86.5,76.7,67.1,61.9,58.7,55.1,75,55,37,30.12,29.99,7,1,9,0.00
2013-5-17,70.5,67.7,65.3,68.8,63.5,56.6,98,87,62,30.16,30.04,6,1,9,0.00
2013-5-18,84.4,74.4,65.8,70.0,66.8,63.6,99,79,54,30.09,30.00,5,1,8,0.00
2013-5-19,89.1,77.3,70.5,77.0,70.1,65.7,98,81,53,30.10,29.97,84,2,84,15.51
2013-5-20,86.4,76.9,65.5,71.3,67.6,62.9,94,74,57,30.12,29.99,5,2,11,0.00
2013-5-21,87.4,74.6,66.7,69.7,66.9,60.2,96,78,54,30.11,29.92,19,1,24,0.00
2013-5-22,81.3,71.8,64.4,70.7,65.0,61.9,99,81,53,30.00,29.89,8,1,11,0.00
2013-5-23,77.4,69.2,62.2,64.2,58.9,53.9,98,72,46,30.19,29.97,10,2,12,0.00
2013-5-24,72.3,63.6,56.8,58.2,49.5,45.7,85,62,40,30.41,30.18,7,1,11,0.00
2013-5-25,79.3,65.4,49.8,52.4,48.8,41.0,95,60,26,30.44,30.24,4,1,8,0.00
2013-5-26,84.7,71.1,55.9,59.3,54.6,50.4,90,60,34,30.34,30.19,4,1,7,0.00
2013-5-27,88.0,69.7,59.4,61.4,58.7,54.6,94,72,34,30.25,30.11,4,1,8,0.00
2013-5-31,81.3,79.7,73.8,68.4,67.6,62.5,68,67,65,30.13,30.02,3,1,6,0.00
2013-6-1,86.5,76.7,69.6,71.3,68.5,66.3,97,77,55,30.08,29.90,8,2,12,0.00
2013-6-2,80.1,72.3,67.3,70.9,66.3,61.9,96,82,63,30.04,29.95,4,1,6,0.00
2013-6-3,78.3,70.2,61.5,63.5,59.6,55.3,94,71,46,30.12,30.01,5,1,8,0.00
2013-6-4,77.4,64.7,57.6,62.9,58.7,56.1,96,82,60,30.14,30.05,3,0,4,0.00
2013-6-5,81.5,72.9,64.6,71.9,66.8,60.9,99,82,66,30.10,29.91,8,1,9,0.00
2013-6-6,82.2,74.6,69.6,70.4,68.2,66.3,96,81,63,29.93,29.81,4,1,6,0.00
2013-6-7,80.4,71.3,66.9,70.7,67.5,65.4,97,88,63,29.96,29.83,3,0,4,0.00
2013-6-8,82.6,73.2,65.3,67.9,62.5,55.0,99,73,42,30.11,29.94,5,1,6,0.00
2013-6-9,83.7,73.4,65.1,72.1,67.7,62.6,99,83,65,30.14,29.94,8,1,12,0.00
2013-6-10,86.0,75.7,67.8,70.6,67.2,64.0,99,77,51,30.03,29.91,8,1,9,0.18
2013-6-11,92.7,81.0,68.4,73.9,68.8,63.1,98,70,45,30.11,30.01,5,1,8,0.00
2013-6-13,78.4,75.8,72.9,67.1,64.3,61.2,70,68,66,30.04,29.97,3,1,4,0.00
2013-6-14,84.9,74.6,62.4,63.2,57.8,53.6,84,58,38,30.12,30.02,5,1,8,15.78
2013-6-15,90.1,75.4,63.7,66.0,62.2,57.5,92,68,34,30.18,30.08,7,1,10,0.00
2013-6-22,86.4,78.4,71.2,73.6,69.3,62.3,95,76,48,30.21,30.07,16,1,18,0.33
2013-6-23,89.4,79.7,67.8,71.4,67.1,63.1,99,69,44,30.25,30.12,5,1,8,0.00
2013-6-24,90.5,78.8,70.9,76.7,70.1,66.4,92,76,47,30.25,30.14,6,1,10,0.05
2013-6-25,91.6,82.6,71.6,74.4,71.7,69.6,96,72,51,30.19,30.02,4,1,5,0.00
2013-6-26,92.3,85.2,77.5,73.7,71.9,67.5,86,66,47,30.08,29.89,8,2,10,0.00
2013-6-27,94.1,84.3,73.8,76.7,71.3,66.9,87,67,45,29.98,29.87,11,3,16,0.00
2013-6-28,89.6,82.5,75.2,73.0,69.7,65.0,87,67,47,29.91,29.73,6,2,9,0.00
2013-6-29,87.3,78.9,67.8,66.7,63.3,60.5,90,61,42,29.81,29.70,9,2,11,0.00
2013-6-30,81.9,71.7,65.1,66.0,63.6,60.4,94,77,52,29.86,29.77,4,1,5,0.00